West Palm Beach, FL

10:36 AM EDT on October 20, 2019 (GMT -0400)
Palm Beach International

Weather History for KPBI - August, 2019

Change the Weather History Date:

Sunday, August 18, 2019

  Actual Average Record
Temperature  
Mean Temperature 83 °F 83 °F  
Max Temperature 90 °F 90 °F 96 °F (1949)
Min Temperature 76 °F 76 °F 69 °F (1921)
Degree Days  
Heating Degree Days 0 0  
Month to date heating degree days 0 0  
Since 1 June heating degree days 0 0  
Since 1 July heating degree days 0 0  
Cooling Degree Days 18 18  
Month to date cooling degree days 340 324  
Year to date cooling degree days 2924 2472  
Since 1 June cooling degree days 1523 1363  
Growing Degree Days 32 (Base 50)    
Moisture  
Dew Point 75 °F    
Average Humidity 73    
Maximum Humidity 91    
Minimum Humidity 55    
Precipitation  
Precipitation 0.00 in 0.25 in 3.73 in (1981)
Month to date precipitation 10.19 4.42  
Year to date precipitation 41.51 37.19  
Snow  
Snow 0.00 in - - ()
Month to date snowfall 0.0  
Since 1 June snowfall 0.0  
Since 1 July snowfall 0.0  
Snow Depth 0.00 in    
Sea Level Pressure  
Sea Level Pressure 30.09 in    
Wind  
Wind Speed 6 mph (East)    
Max Wind Speed 15 mph    
Max Gust Speed 20 mph    
Visibility 10 miles    
Events Rain , Thunderstorm    
T = Trace of Precipitation, MM = Missing Value Source: NWS Daily Summary

Daily Weather History Graph

Daily Weather History Graph

Search for Another Location

Airport or City:

Astronomy

Aug. 18, 2019 Rise Set
Actual Time 6:53 AM EDT 7:54 PM EDT
Civil Twilight 6:29 AM EDT 8:18 PM EDT
Nautical Twilight 6:00 AM EDT 8:47 PM EDT
Astronomical Twilight 5:31 AM EDT 9:16 PM EDT
Moon 10:03 PM EDT (8/18) 9:25 AM EDT (8/18)
Length of Visible Light 13h 49m
Length of Day
13h 00m
Waning Gibbous, 91% of the Moon is Illuminated
Aug 18
Waning Gibbous
Aug 23
Last Quarter
Aug 30
New
Sep 5
First Quarter
Sep 14
Full

Hourly Weather History & Observations

Time (EDT) Temp. Heat Index Dew Point Humidity Pressure Visibility Wind Dir Wind Speed Gust Speed Precip Events Conditions
12:53 AM 78.1 °F - 73.9 °F 87% 30.11 in 10.0 mi Calm Calm - N/A   Scattered Clouds
1:53 AM 78.1 °F - 73.9 °F 87% 30.09 in 10.0 mi Calm Calm - N/A   Partly Cloudy
2:53 AM 78.1 °F - 73.0 °F 84% 30.08 in 10.0 mi Calm Calm - N/A   Partly Cloudy
3:53 AM 77.0 °F - 73.9 °F 90% 30.07 in 10.0 mi Calm Calm - N/A   Partly Cloudy
4:53 AM 77.0 °F - 73.0 °F 88% 30.07 in 10.0 mi NNW 3.5 mph - N/A   Scattered Clouds
5:53 AM 77.0 °F - 73.9 °F 90% 30.07 in 10.0 mi Calm Calm - N/A   Scattered Clouds
6:53 AM 78.1 °F - 75.0 °F 90% 30.08 in 10.0 mi Calm Calm - N/A   Mostly Cloudy
7:53 AM 80.1 °F 85.4 °F 75.9 °F 87% 30.09 in 10.0 mi Calm Calm - N/A   Scattered Clouds
8:53 AM 86.0 °F 96.0 °F 75.9 °F 72% 30.09 in 10.0 mi NE 3.5 mph - N/A   Scattered Clouds
9:53 AM 87.1 °F 96.3 °F 75.0 °F 67% 30.09 in 10.0 mi ENE 5.8 mph - N/A   Scattered Clouds
10:53 AM 88.0 °F 98.5 °F 75.9 °F 67% 30.11 in 10.0 mi NE 5.8 mph - N/A   Scattered Clouds
11:53 AM 89.1 °F 100.2 °F 75.9 °F 65% 30.11 in 10.0 mi East 8.1 mph - N/A   Scattered Clouds
12:53 PM 90.0 °F 101.3 °F 75.9 °F 63% 30.12 in 10.0 mi SE 11.5 mph - N/A   Scattered Clouds
1:33 PM 89.1 °F 100.2 °F 75.9 °F 65% 30.10 in 10.0 mi East 13.8 mph - N/A Thunderstorm Thunderstorm
1:53 PM 89.1 °F 100.2 °F 75.9 °F 65% 30.10 in 10.0 mi ESE 10.4 mph - N/A Thunderstorm Thunderstorm
2:53 PM 87.1 °F 92.0 °F 70.0 °F 57% 30.10 in 10.0 mi WNW 3.5 mph - N/A Thunderstorm Thunderstorm
3:25 PM 89.1 °F 97.0 °F 73.0 °F 59% 30.09 in 10.0 mi Variable 4.6 mph - N/A   Mostly Cloudy
3:53 PM 87.1 °F 97.3 °F 75.9 °F 69% 30.08 in 10.0 mi ESE 9.2 mph - N/A   Mostly Cloudy
4:53 PM 89.1 °F 100.2 °F 75.9 °F 65% 30.07 in 10.0 mi East 10.4 mph - N/A   Mostly Cloudy
5:53 PM 87.1 °F 96.3 °F 75.0 °F 67% 30.06 in 10.0 mi East 11.5 mph - N/A   Mostly Cloudy
6:53 PM 87.1 °F 96.3 °F 75.0 °F 67% 30.06 in 10.0 mi ENE 9.2 mph - N/A   Scattered Clouds
7:53 PM 86.0 °F 93.8 °F 73.9 °F 67% 30.07 in 10.0 mi East 8.1 mph - N/A   Scattered Clouds
8:53 PM 86.0 °F 95.1 °F 75.0 °F 70% 30.06 in 10.0 mi East 9.2 mph - N/A   Scattered Clouds
9:53 PM 86.0 °F 95.1 °F 75.0 °F 70% 30.08 in 10.0 mi East 8.1 mph - N/A   Partly Cloudy
10:53 PM 84.9 °F 93.3 °F 75.0 °F 72% 30.09 in 10.0 mi East 8.1 mph - N/A   Partly Cloudy
11:53 PM 84.9 °F 94.1 °F 75.9 °F 74% 30.09 in 10.0 mi East 8.1 mph - N/A   Partly Cloudy